Location: Chavannes
(47.1090°N, 0.2226°W)
Time: 13:02:01
(UTC+00:00)

Lacrosse 4 Rocket - Pass Details

Date: 16 October 2021
Orbit: 537 x 619 km, 68.0° (Epoch: 02 December)

Event Time Altitude Azimuth Distance (km) Brightness Sun altitude
Rises 20:08:22 0° 329° (NNW) 2,794 5.6 -30.5°
Reaches altitude 10° 20:10:34 10° 330° (NNW) 1,905 4.6 -30.8°
Enters shadow 20:12:10 22° 333° (NNW) 1,289 3.6 -31.1°
